Preview of NWS' New Version of Forecast
This preview is not operational and should not be used for support decisions.

Regional Weather Roundup (RWR)

Issued by National Weather Service (NWS)

                            
000
ASUS43 KTOP 220359
RWRKS 

WEATHER ROUNDUP FOR KANSAS
NATIONAL WEATHER SERVICE GOODLAND KS
1100 PM CDT SUN APR 21 2019

NOTE:  "FAIR" INDICATES FEW OR NO CLOUDS BELOW 12,000 FEET WITH NO
SIGNIFICANT WEATHER AND/OR OBSTRUCTIONS TO VISIBILITY.

KSZ001>006-013>018-027>032-041>047-220500-
NORTHWEST KANSAS
  
CITY           SKY/WX    TMP DP  RH WIND       PRES   REMARKS
GOODLAND       MOCLDY    52  47  83 NW22G33   29.92R                  
HAYS           CLOUDY    65  49  56 N9        29.81R                  
HILL CITY      MOCLDY    61  52  72 N15G26    29.78F                  
RUSSELL        CLOUDY    61  55  81 SW6       29.79R                  
$$

KSZ061>065-074>080-084>089-220500-
SOUTHWEST KANSAS
  
CITY           SKY/WX    TMP DP  RH WIND       PRES   REMARKS
DODGE CITY     MOCLDY    62  45  53 N14       29.84R                  
GARDEN CITY    PTCLDY    58  45  62 N14       29.85R                  
GREAT BEND     RAIN      61  53  75 SW9       29.79R                  
LIBERAL        CLEAR     61  45  55 N16       29.86R                  
$$

KSZ066>073-081>083-090>101-220500-
SOUTHEAST KANSAS
  
CITY           SKY/WX    TMP DP  RH WIND       PRES   REMARKS
CHANUTE        CLEAR     71  49  45 S13       29.87R                  
COFFEYVILLE    CLEAR     72  50  45 S12       29.87R                  
HUTCHINSON     MOCLDY    72  57  59 SW13G29   29.78R                  
MEDICINE LODGE   N/A     69  60  73 S15G26    29.75R                  
NEWTON         PTCLDY    70  56  61 S21G26    29.78R                  
PARSONS        CLEAR     71  50  47 S8        29.88R                  
WICHITA INTL   CLEAR     72  56  57 S18       29.79R                  
WICHITA JABRA  CLEAR     71  56  58 S20G31    29.80R                  
WINFIELD       CLEAR     69  56  62 S16       29.83R                  
$$

KSZ007>012-019>026-033>040-048>060-102>105-220500-
NORTHEAST KANSAS
  
CITY           SKY/WX    TMP DP  RH WIND       PRES   REMARKS
CONCORDIA      TSTM      62  56  80 SW10      29.85R                  
EMPORIA        CLEAR     71  50  47 S25G37    29.78R                  
LAWRENCE       PTCLDY    75  48  38 S15       29.81R                  
MANHATTAN      CLOUDY    74  50  42 S13G23    29.75R                  
OLATHE IND     PTCLDY    72  50  45 S14G25    29.83R                  
OLATHE EXE     PTCLDY    69  50  50 S13       29.84R                  
SALINA         TSTM      70  55  59 NW20G30   29.83R                  
TOPEKA BILLARD CLEAR     72  48  42 SE12G20   29.79R                  
TOPEKA FORBES  CLEAR     71  48  43 S14       29.79R                  
$$